User: anonymous   Login
Location: Unspecified
(0.0000°N, 0.0000°E)
Time: 10:19:14
(UTC+00:00)
Language:

Optus B1 - Orbit

View from above orbital plane
View from above orbital plane
View from above satellite
View from above satellite

Ground track
Ground track

The orbit data is extracted from the following two-line orbital elements,

1 22087U 92054A   15213.41968591 -.00000315  00000-0  00000+0 0  9993
2 22087 007.6204 051.7299 0010551 053.3755 130.6659 00.99207399 95285
Epoch (UTC): 01 August 2015 10:04:20
Eccentricity: 0.0010551
inclination: 7.6204°
perigee height: 36042 km
apogee height: 36132 km
right ascension of ascending node: 51.7299°
argument of perigee: 53.3755°
revolutions per day: 0.99207399
mean anomaly at epoch: 130.6659°
orbit number at epoch: 9528

The dashed part of the orbit path shows where the satellite is in the earth's shadow,  

DLR